Weather History for Dallas Redbird, TX

Change the Weather History Date:

Friday, February 15, 2013

  Actual Average Record
Temperature  
Mean Temperature 45 °F -  
Max Temperature 53 °F 59 °F 81 °F (2005)
Min Temperature 37 °F 40 °F 25 °F (2007)
Degree Days  
Heating Degree Days 20    
Moisture  
Dew Point 26 °F    
Average Humidity 45    
Maximum Humidity 63    
Minimum Humidity 25    
Precipitation  
Precipitation 0.00 in - - ()
Sea Level Pressure  
Sea Level Pressure 30.28 in    
Wind  
Wind Speed 9 mph (North)    
Max Wind Speed 17 mph    
Max Gust Speed 24 mph    
Visibility 10 miles    
Events      
Averages and records for this station are not official NWS values.
T = Trace of Precipitation, MM = Missing Value Source: NWS Daily Summary

Daily Weather History Graph

Daily Weather History Graph

Search for Another Location

Airport:

Trip Planner

Search our weather history database for the weather conditions in past years. The results will help you decide how hot, cold, wet, or windy it might be!

Date:

Astronomy

Feb. 15, 2013 Rise Set
Actual Time 7:10 AM CST 6:13 PM CST
Civil Twilight 6:45 AM CST 6:38 PM CST
Nautical Twilight 6:16 AM CST 7:07 PM CST
Astronomical Twilight 5:47 AM CST 7:36 PM CST
Moon 10:08 AM CST (2/15) 11:52 PM CST (2/15)
Length of Visible Light 11h 53m
Length of Day
11h 03m
Waxing Crescent, 30% of the Moon is Illuminated
Feb 15
Waxing Crescent
Feb 17
First Quarter
Feb 25
Full
Mar 4
Last Quarter
Mar 11
New

Hourly Weather History & Observations

Time (CST) Temp. Windchill Dew Point Humidity Pressure Visibility Wind Dir Wind Speed Gust Speed Precip Events Conditions
12:53 AM 50.0 °F - 36.0 °F 59% 30.10 in 10.0 mi Calm Calm - N/A   Overcast
1:53 AM 53.1 °F - 37.0 °F 55% 30.15 in 10.0 mi NNW 9.2 mph - N/A   Overcast
2:53 AM 52.0 °F - 33.1 °F 49% 30.16 in 10.0 mi North 10.4 mph 21.9 mph N/A   Mostly Cloudy
3:53 AM 51.1 °F - 32.0 °F 48% 30.18 in 10.0 mi NNE 15.0 mph 21.9 mph N/A   Scattered Clouds
4:53 AM 50.0 °F - 30.9 °F 48% 30.20 in 10.0 mi NNE 10.4 mph 19.6 mph N/A   Overcast
5:53 AM 50.0 °F - 33.1 °F 52% 30.22 in 10.0 mi NNE 12.7 mph - N/A   Overcast
6:53 AM 48.9 °F - 34.0 °F 56% 30.25 in 10.0 mi North 17.3 mph 24.2 mph N/A   Overcast
7:53 AM 46.9 °F - 33.1 °F 59% 30.28 in 10.0 mi NE 13.8 mph 20.7 mph N/A   Overcast
8:53 AM 46.0 °F 41.0 °F 34.0 °F 63% 30.30 in 10.0 mi NNE 10.4 mph - N/A   Overcast
9:53 AM 46.9 °F - 32.0 °F 56% 30.32 in 10.0 mi NNE 13.8 mph - N/A   Overcast
10:53 AM 46.9 °F - 30.9 °F 54% 30.34 in 10.0 mi NNE 11.5 mph - N/A   Overcast
11:53 AM 48.0 °F - 21.9 °F 36% 30.34 in 10.0 mi North 15.0 mph 19.6 mph N/A   Overcast
12:53 PM 46.9 °F - 19.0 °F 33% 30.33 in 10.0 mi North 13.8 mph - N/A   Overcast
1:53 PM 46.9 °F - 25.0 °F 42% 30.30 in 10.0 mi North 12.7 mph - N/A   Overcast
2:53 PM 50.0 °F - 21.9 °F 33% 30.30 in 10.0 mi North 11.5 mph - N/A   Overcast
3:53 PM 52.0 °F - 17.1 °F 25% 30.28 in 10.0 mi North 12.7 mph - N/A   Mostly Cloudy
4:53 PM 48.9 °F - 16.0 °F 27% 30.29 in 10.0 mi North 12.7 mph - N/A   Overcast
5:53 PM 48.0 °F - 17.1 °F 29% 30.31 in 10.0 mi North 10.4 mph - N/A   Mostly Cloudy
6:53 PM 46.0 °F 40.6 °F 17.1 °F 31% 30.33 in 10.0 mi North 11.5 mph - N/A   Clear
7:53 PM 44.1 °F 40.1 °F 18.0 °F 35% 30.35 in 10.0 mi NNW 6.9 mph - N/A   Clear
8:53 PM 42.1 °F 38.4 °F 19.0 °F 40% 30.37 in 10.0 mi North 5.8 mph - N/A   Clear
9:53 PM 39.9 °F 36.7 °F 19.9 °F 45% 30.38 in 10.0 mi NNW 4.6 mph - N/A   Clear
10:53 PM 37.0 °F 32.4 °F 21.0 °F 52% 30.38 in 10.0 mi WNW 5.8 mph - N/A   Clear
11:53 PM 37.0 °F 31.6 °F 21.9 °F 54% 30.37 in 10.0 mi WNW 6.9 mph - N/A   Clear